Location: N�rnberg
(49.4489°N, 11.0797°E)
Time: 19:07:52
(UTC+01:00)

ISS - Pass Details

Date: 13 January 2018
Orbit: 402 x 407 km, 51.6° (Epoch: 17 January)

Event Time Altitude Azimuth Distance (km) Brightness Sun altitude
Exits shadow 07:06:45 10° 258° (WSW) 1,484 -1.5 -9.6°
Reaches altitude 10° 07:06:50 10° 257° (WSW) 1,465 -1.5 -9.6°
Maximum altitude 07:08:40 14° 222° (SW) 1,231 -1.6 -9.3°
Drops below altitude 10° 07:10:31 10° 188° (S) 1,460 -0.8 -9.0°
Sets 07:13:17 0° 162° (SSE) 2,316 0.7 -8.6°
